[[{"header":{"parameterUnit":"m.s-1","parameterCategory":1,"la1":30.2991,"la2":30.254,"lo1":-89.0895,"lo2":-89.0444,"dy":0.0017,"dx":0.0017,"nx":28,"ny":28,"refTime":"2024-07-30T03:00:00:Z","depth":0,"parameterNumber":2,"parameterNumberName":"U-component_of_WINDS"},"data":[0,0,0,0,0,0,0,0,0,0,0,0,0,0,0,0,0,0,0,0,0,0,0,0,0,0,0,0,0,0,0,0,0,0,0,0,0,0,0,0,0,0,0,0,0,0,0,0,0,0,0,0,0,0,0,0,0,0,2.0877,2.0878,0,2.1008,2.101,2.1011,2.1013,2.1012,2.101,2.1008,2.1147,2.1152,2.1157,0,0,0,0,0,0,0,0,0,0,0,0,0,2.0632,2.0637,2.0877,2.0878,2.088,2.1008,2.101,2.1011,2.1014,2.1012,2.101,2.1008,2.1145,2.1151,2.1158,0,0,0,0,0,0,0,0,0,0,0,0,0,2.0749,2.0638,2.0876,2.0896,2.0899,2.1007,2.101,2.1012,2.1014,2.1012,2.1009,2.1007,2.1143,2.1151,2.1159,2.1257,0,0,2.1183,2.1186,0,0,0,0,0,0,0,0,2.0742,2.0758,2.0892,2.0895,2.0899,2.0992,2.0974,2.1094,2.1015,2.0971,2.1008,2.1005,2.1098,2.1109,2.1139,2.1263,2.1269,2.1183,2.1188,2.1191,2.1194,0,0,0,0,0,0,0,2.0734,2.0752,2.0929,2.0894,2.0898,2.09,2.0914,2.0997,2.1047,2.0974,2.0975,2.099,2.1099,2.1132,2.1142,2.1271,2.1183,2.119,2.1195,2.1198,2.1483,2.1486,0,0,0,0,0,0,2.0721,2.0745,2.0925,2.0933,2.0813,2.0907,2.0922,2.0964,2.1046,2.1056,2.0992,2.099,2.1119,2.1133,2.1147,2.1267,2.1191,2.1199,2.1203,2.148,2.1483,2.1487,0,0,0,0,0,0,2.0716,2.0737,2.0919,2.0839,2.0863,2.0913,2.0961,2.0968,2.1001,2.1059,2.1068,2.1016,2.1118,2.1136,2.1229,2.1272,2.1202,2.1209,2.1477,2.1481,2.1485,2.1508,0,0,0,0,0,0,2.0709,2.0735,2.0772,2.084,2.0867,2.0998,2.0964,2.0973,2.1014,2.1012,2.1084,2.1093,2.1117,2.1218,2.1237,2.1282,2.1215,2.1473,2.1479,2.1484,2.1504,2.1513,2.1521,0,0,0,0,0,2.07,2.0774,2.0774,2.0796,2.0913,2.1,2.1016,2.1041,2.1017,2.1055,2.1093,2.1091,2.1265,2.1227,2.1249,2.1297,2.147,2.1477,2.1483,2.15,2.1511,2.152,0,0,0,0,0,0,2.0711,2.0783,2.0784,2.0882,2.0935,2.1,2.1049,2.1051,2.1113,2.1109,2.1139,2.1155,2.1248,2.1282,2.1239,2.1396,2.1365,2.1376,2.137,2.1381,2.1389,2.1379,2.1222,0,0,0,0,0,2.0725,2.0788,2.0848,2.0929,2.0955,2.0998,2.1036,2.1051,2.1108,2.113,2.1175,2.1231,2.1298,2.1342,2.1407,2.1509,2.1525,2.1553,2.1562,2.1568,2.1577,2.1634,2.1647,2.1508,2.1508,2.1508,0,0,2.0754,2.0801,2.0839,2.0932,2.0975,2.1041,2.1016,2.1087,2.1137,2.1142,2.1231,2.1266,2.1331,2.1429,2.1475,2.146,2.1619,2.1576,2.1581,2.1587,2.1642,2.1655,2.1667,2.1512,2.1511,2.1511,0,0,2.084,2.0882,2.0954,2.0997,2.1062,2.109,2.1107,2.1173,2.1195,2.1286,2.1291,2.1351,2.1466,2.1512,2.1551,2.1655,2.1656,2.1676,2.1719,2.1774,2.1785,2.1795,2.1832,2.1845,2.1685,2.1685,2.1685,0,2.0868,2.0966,2.0991,2.1061,2.1102,2.1109,2.1182,2.1224,2.1307,2.1336,2.1319,2.1463,2.1508,2.1616,2.1642,2.1673,2.1694,2.1667,2.1782,2.1792,2.1801,2.1837,2.1851,2.1687,2.1687,2.1687,2.1687,0,2.0998,2.1066,2.1116,2.1195,2.1242,2.1314,2.135,2.1395,2.1406,2.1436,2.1529,2.1582,2.1658,2.1686,2.1698,2.1797,2.1786,2.1775,2.1744,2.1816,2.185,2.1864,2.169,2.1689,2.1689,2.1688,0,0,2.1093,2.1185,2.1203,2.1239,2.1311,2.1365,2.1438,2.1511,2.1549,2.1607,2.1669,2.1766,2.1757,2.18,2.1818,2.1867,2.1946,2.185,2.1852,2.1865,2.2058,2.2065,2.208,2.1947,2.195,2.1952,2.2052,0,2.1187,2.1314,2.1339,2.1451,2.1514,2.1522,2.1586,2.1638,2.1668,2.1728,2.1762,2.183,2.1813,2.1839,2.1887,2.1926,2.1985,2.1919,2.2006,2.2009,2.1988,2.2098,2.2106,2.2198,2.2066,2.2068,2.207,0,2.1313,2.1372,2.149,2.1554,2.1581,2.1638,2.1707,2.1764,2.1823,2.1842,2.1891,2.1903,2.1981,2.1946,2.2054,2.2008,2.2046,2.207,2.2074,2.2082,2.2043,2.2109,2.2228,2.2242,2.2091,2.209,2.2088,0,2.137,2.148,2.1564,2.1595,2.1672,2.1712,2.1746,2.1803,2.1845,2.1907,2.1935,2.2005,2.2043,2.2097,2.2128,2.2101,2.2233,2.2202,2.2252,2.2251,2.2278,2.2276,2.2404,2.2304,2.2304,2.2303,2.2303,0,2.1471,2.1543,2.1591,2.1643,2.1724,2.1752,2.1832,2.1866,2.1917,2.1976,2.1988,2.2044,2.2082,2.2144,2.2169,2.2254,2.2272,2.229,2.2295,2.2288,2.2286,2.2312,2.2306,2.2307,2.2306,2.2306,2.2305,0,2.1548,2.1584,2.1676,2.1741,2.176,2.1816,2.1873,2.1924,2.1955,2.203,2.205,2.2098,2.2171,2.2208,2.23,2.2317,2.2412,2.2415,2.2392,2.2394,2.2441,2.2436,2.259,2.2611,2.2498,2.2499,2.2499,0,2.161,2.1665,2.1736,2.1776,2.1811,2.1876,2.1919,2.195,2.1995,2.2067,2.211,2.2184,2.2244,2.2361,2.2405,2.2476,2.2479,2.2529,2.249,2.2481,2.2479,2.2475,2.2481,2.2535,2.2536,2.2537,2.2538,0,2.1716,2.1731,2.1792,2.186,2.1911,2.1966,2.202,2.2053,2.2093,2.2143,2.2217,2.2263,2.2357,2.243,2.2503,2.254,2.2546,2.255,2.2565,2.2557,2.2541,2.255,2.2409,2.2546,2.2545,2.2544,2.2544,2.2544,2.1787,2.1836,2.1894,2.1962,2.2006,2.2057,2.2108,2.2145,2.2207,2.2284,2.2299,2.2378,2.2438,2.2537,2.2576,2.2639,2.2628,2.265,2.2655,2.266,2.2662,2.2532,2.2652,2.2652,2.2652,2.2652,2.2652,0,2.1893,2.1931,2.1993,2.2068,2.2122,2.2122,2.2182,2.2227,2.2296,2.2351,2.2409,2.2495,2.2566,2.2616,2.2689,2.2729,2.2734,2.2747,2.2744,2.2752,2.2668,2.2647,2.2742,2.2742,2.2742,2.2742,2.2742,2.2742,2.1954,2.2037,2.2059,2.2165,2.2202,2.2279,2.2313,2.236,2.2404,2.2498,2.2557,2.2589,2.2642,2.2718,2.2784,2.2797,2.2822,2.2836,2.2849,2.2768,2.2759,2.2749,2.273,2.2841,2.2841,2.2928,2.2929,2.2929]},{"header":{"parameterUnit":"m.s-1","parameterCategory":1,"la1":30.2991,"la2":30.254,"lo1":-89.0895,"lo2":-89.0444,"dy":0.0017,"dx":0.0017,"nx":28,"ny":28,"refTime":"2024-07-30T03:00:00:Z","depth":0,"parameterNumber":3,"parameterNumberName":"V-component_of_WINDS"},"data":[0,0,0,0,0,0,0,0,0,0,0,0,0,0,0,0,0,0,0,0,0,0,0,0,0,0,0,0,0,0,0,0,0,0,0,0,0,0,0,0,0,0,0,0,0,0,0,0,0,0,0,0,0,0,0,0,0,0,3.359,3.3591,0,3.3655,3.3656,3.3656,3.3659,3.3659,3.3658,3.3657,3.372,3.3722,3.3725,0,0,0,0,0,0,0,0,0,0,0,0,0,3.3462,3.3464,3.359,3.3591,3.3592,3.3655,3.3656,3.3657,3.3659,3.3659,3.3658,3.3657,3.3719,3.3722,3.3725,0,0,0,0,0,0,0,0,0,0,0,0,0,3.3521,3.3465,3.359,3.3601,3.3602,3.3655,3.3656,3.3657,3.366,3.3659,3.3657,3.3656,3.3718,3.3722,3.3725,3.377,0,0,3.3736,3.3738,0,0,0,0,0,0,0,0,3.3518,3.3526,3.3598,3.36,3.3602,3.3648,3.3634,3.3695,3.366,3.3638,3.3657,3.3656,3.3697,3.3702,3.3717,3.3773,3.3776,3.3737,3.3739,3.374,3.3741,0,0,0,0,0,0,0,3.3514,3.3523,3.3616,3.3599,3.3602,3.36,3.3607,3.3645,3.3673,3.364,3.364,3.3648,3.3697,3.3713,3.3718,3.3777,3.3736,3.374,3.3742,3.3743,3.3867,3.3868,0,0,0,0,0,0,3.3508,3.3519,3.3613,3.3618,3.3556,3.3603,3.3611,3.3634,3.3672,3.3677,3.3649,3.3648,3.3708,3.3714,3.372,3.3772,3.374,3.3744,3.3746,3.3866,3.3867,3.3869,0,0,0,0,0,0,3.3505,3.3516,3.3611,3.3569,3.3581,3.3607,3.3632,3.3636,3.3652,3.3679,3.3684,3.366,3.3707,3.3715,3.3757,3.3774,3.3745,3.3748,3.3865,3.3866,3.3868,3.3877,0,0,0,0,0,0,3.3502,3.3515,3.3535,3.3569,3.3583,3.3648,3.3634,3.3638,3.3658,3.3658,3.3691,3.3695,3.3707,3.3751,3.376,3.3778,3.3751,3.3863,3.3865,3.3867,3.3875,3.3879,3.3882,0,0,0,0,0,3.3497,3.3535,3.3536,3.3547,3.3608,3.3649,3.3657,3.367,3.366,3.3678,3.3694,3.3694,3.3771,3.3756,3.3766,3.3785,3.3862,3.3865,3.3867,3.3874,3.3878,3.3882,0,0,0,0,0,0,3.3502,3.354,3.3541,3.3592,3.3617,3.365,3.3674,3.3675,3.3704,3.3702,3.3715,3.3723,3.3763,3.3778,3.3761,3.3827,3.3815,3.382,3.3816,3.3821,3.3824,3.3819,3.3754,0,0,0,0,0,3.3509,3.3542,3.3572,3.3614,3.3626,3.3647,3.3666,3.3674,3.37,3.3711,3.3731,3.3756,3.3784,3.3804,3.3832,3.3877,3.3882,3.3895,3.3898,3.3901,3.3905,3.3925,3.393,3.3877,3.3877,3.3877,0,0,3.3524,3.3549,3.3569,3.3615,3.3636,3.3666,3.3657,3.3691,3.3713,3.3716,3.3756,3.3771,3.3799,3.3841,3.386,3.3855,3.392,3.3904,3.3906,3.3908,3.3928,3.3933,3.3938,3.3879,3.3879,3.3878,0,0,3.3567,3.359,3.3625,3.3645,3.3676,3.3689,3.3697,3.3729,3.3739,3.3779,3.3781,3.3806,3.3857,3.3875,3.3891,3.3935,3.3935,3.3944,3.3961,3.3981,3.3985,3.3989,3.4001,3.4006,3.3948,3.3948,3.3948,0,3.3581,3.3629,3.3643,3.3675,3.3694,3.3698,3.3731,3.375,3.3788,3.38,3.3793,3.3854,3.3874,3.3918,3.3928,3.3942,3.3949,3.394,3.3984,3.3987,3.3991,3.4003,3.4008,3.3948,3.3948,3.3948,3.3948,0,3.3643,3.3676,3.37,3.3736,3.3757,3.3791,3.3806,3.3826,3.383,3.3843,3.3881,3.3904,3.3935,3.3946,3.3952,3.399,3.3985,3.3981,3.3968,3.3997,3.4008,3.4013,3.395,3.3949,3.3949,3.3949,0,0,3.3693,3.3733,3.3742,3.3756,3.3788,3.3813,3.3844,3.3875,3.3889,3.3915,3.3939,3.398,3.3975,3.3993,3.4,3.4017,3.4046,3.401,3.4011,3.4014,3.4085,3.4087,3.4093,3.4046,3.4047,3.4048,3.4082,0,3.3736,3.3793,3.3804,3.3852,3.388,3.3882,3.3908,3.393,3.3941,3.3965,3.3977,3.4005,3.3998,3.4008,3.4025,3.4039,3.406,3.4037,3.4066,3.4067,3.4058,3.4099,3.4103,3.4134,3.4087,3.4088,3.4089,0,3.3796,3.3821,3.3872,3.3897,3.3909,3.3933,3.3959,3.3983,3.4005,3.4012,3.403,3.4034,3.4063,3.4049,3.4087,3.4071,3.4083,3.4091,3.4092,3.4095,3.4079,3.4101,3.4145,3.4149,3.4096,3.4096,3.4095,0,3.3823,3.387,3.3905,3.3918,3.3948,3.3964,3.3977,3.3999,3.4015,3.4038,3.4047,3.4073,3.4087,3.4105,3.4114,3.4104,3.4151,3.4139,3.4155,3.4155,3.4164,3.4163,3.421,3.4175,3.4175,3.4175,3.4175,0,3.3869,3.39,3.3917,3.3939,3.3971,3.3982,3.4013,3.4026,3.4044,3.4066,3.4069,3.4089,3.4101,3.4122,3.413,3.4158,3.4165,3.4169,3.417,3.4168,3.4167,3.4176,3.4173,3.4176,3.4176,3.4176,3.4175,0,3.3905,3.3919,3.3957,3.3981,3.3988,3.401,3.403,3.405,3.406,3.4087,3.4094,3.411,3.4135,3.4146,3.4177,3.4181,3.4213,3.4214,3.4206,3.4206,3.422,3.4218,3.4273,3.4279,3.4242,3.4242,3.4242,0,3.3933,3.3956,3.3982,3.3997,3.4011,3.4035,3.4051,3.4061,3.4077,3.4102,3.4117,3.4142,3.4162,3.4201,3.4214,3.4236,3.4236,3.4254,3.424,3.4235,3.4233,3.4231,3.4232,3.4256,3.4256,3.4256,3.4257,0,3.3981,3.3985,3.4008,3.4033,3.4051,3.4071,3.4091,3.4102,3.4115,3.4132,3.4157,3.4173,3.4202,3.4226,3.4248,3.4259,3.4259,3.4261,3.4265,3.4263,3.4256,3.4257,3.421,3.426,3.4259,3.4259,3.4259,3.4259,3.4012,3.403,3.4051,3.4075,3.409,3.4107,3.4126,3.4137,3.4159,3.4184,3.4188,3.4214,3.4231,3.4262,3.4273,3.4292,3.4288,3.4295,3.4296,3.4298,3.4297,3.4254,3.4296,3.4296,3.4296,3.4296,3.4296,0,3.4057,3.4069,3.4091,3.4117,3.4135,3.4134,3.4154,3.4169,3.4192,3.4209,3.4228,3.4254,3.4276,3.429,3.4311,3.4323,3.4323,3.4328,3.4326,3.4328,3.4301,3.4294,3.4327,3.4327,3.4327,3.4327,3.4327,3.4327,3.4082,3.4113,3.4119,3.4155,3.4167,3.4193,3.4203,3.4218,3.4231,3.4261,3.4279,3.4287,3.4302,3.4324,3.4342,3.4345,3.4352,3.4357,3.436,3.4334,3.4331,3.4327,3.4321,3.4359,3.4359,3.4385,3.4385,3.4385]}]]